Location: Banska Bystrica
(48.7330°N, 19.1500°E)
Time: 13:59:43
(UTC+02:00)

ISS - Pass Details

Date: 24 March 2019
Orbit: 408 x 410 km, 51.6° (Epoch: 25 April)

Event Time Altitude Azimuth Distance (km) Brightness Sun altitude
Rises 21:04:11 0° 271° (W) 2,334 0.7 -28.3°
Reaches altitude 10° 21:06:19 10° 277° (W) 1,473 -0.4 -28.6°
Enters shadow 21:06:50 14° 279° (W) 1,269 -0.7 -28.6°
